Location: Plymouth
(43.7570°N, 71.6890°W)
Time: 23:38:48
(UTC-04:00)

Daily predictions for brighter satellites

Satellite Brightness Start Highest point End
(mag) Time Altitude Azimuth Time Altitude Azimuth Time Altitude Azimuth
Resurs 01 Rocket 1.8 20:09:00 10° SSE 20:13:27 82° WSW 20:17:56 10° NNW
GRACE-1 4.5 20:13:18 10° N 20:16:01 59° W 20:18:42 10° SSW
Cosmos 1844 Rocket 4.4 20:12:13 10° N 20:16:03 18° NE 20:19:52 10° E
USA 229 DEB 4.4 20:10:29 10° SSE 20:16:10 29° ESE 20:21:56 10° NE
USA 229 4.4 20:10:37 10° SSE 20:16:17 29° ESE 20:22:01 10° NE
GRACE-2 4.5 20:13:39 10° N 20:16:22 60° W 20:19:03 10° SSW
Cosmos 1315 Rocket 4.2 20:14:30 10° NNW 20:18:22 42° W 20:22:08 10° SSW
CZ-4C R/B 4.5 20:13:29 10° NNW 20:18:25 21° NNE 20:23:46 10° ENE
OAO 3 Rocket 4.5 20:21:30 10° WSW 20:25:34 27° S 20:29:42 10° SE
ALOS 4.0 20:21:24 10° SSW 20:25:38 34° W 20:29:53 10° NNW
YAOGAN 6 4.1 20:23:59 10° ESE 20:26:47 21° ENE 20:29:33 10° NNE
Cosmos 1933 3.5 20:26:44 10° S 20:30:38 50° E 20:34:32 10° NNE
Cosmos 1992 Rocket 4.0 20:27:20 10° SSW 20:32:33 78° ESE 20:37:49 10° NNE
Cosmos 2026 Rocket 4.1 20:26:28 10° N 20:32:43 87° W 20:38:50 10° S
Meteor 2-10 Rocket 4.2 20:28:39 10° SSE 20:34:04 42° E 20:39:27 10° NNE
Cosmos 1733 Rocket 3.1 20:34:13 10° N 20:38:42 88° ENE 20:43:09 10° S
Cosmos 2219 Rocket 3.9 20:38:26 11° ESE 20:39:43 12° E 20:41:46 10° ENE
USA 267 3.5 20:35:20 10° NE 20:41:53 75° NW 20:48:25 10° WSW
Cosmos 1862 3.4 20:39:57 10° N 20:44:00 81° W 20:48:02 10° S
Helios 1A 3.1 20:40:28 10° SSE 20:44:42 86° WSW 20:48:59 10° NNW
Okean 1-7 4.4 20:44:11 14° SE 20:46:45 22° E 20:50:08 10° NE
Cosmos 1862 Rocket 3.6 20:45:33 10° S 20:50:00 89° W 20:54:32 10° N
Okean 2 Rocket 4.4 20:47:31 10° NNE 20:51:12 24° ENE 20:53:31 16° ESE
Meteor 1-26 Rocket 4.5 20:46:42 10° SSE 20:52:10 50° E 20:57:46 10° NNE
Cosmos 2263 Rocket 2.7 20:53:34 10° NNW 20:59:01 57° WSW 21:04:28 10° S
Cosmos 968 Rocket 3.5 20:59:26 10° NNW 21:04:41 87° ENE 21:09:04 15° SSE
USA 186 4.1 21:05:10 10° SW 21:07:22 20° W 21:09:43 10° NW
Cosmos 1939 Rocket 3.1 21:03:29 10° S 21:07:31 71° WSW 21:11:30 10° NNW
Terra 4.0 21:06:19 10° ENE 21:07:59 12° ENE 21:09:38 10° NE
Cosmos 1703 Rocket 3.6 21:06:22 10° S 21:10:43 58° E 21:15:05 10° NNE
Cosmos 2322 Rocket 3.7 21:07:01 10° SW 21:12:15 39° WNW 21:17:32 10° NNE
Cosmos 2237 4.3 21:06:53 10° S 21:12:26 54° ESE 21:18:01 10° NNE
Atlas Centaur 2 3.7 21:10:24 10° SW 21:16:02 28° S 21:19:23 21° SE
USA 234 3.3 21:12:08 20° SE 21:17:00 89° SW 21:23:35 10° NW
Cosmos 2360 Rocket 2.3 21:14:03 10° SSW 21:19:42 81° WNW 21:25:25 10° NNE
Abrixas rocket 3.5 21:17:15 10° WNW 21:20:20 35° N 21:22:26 17° ENE
MetOp-B 4.3 21:17:56 22° SE 21:21:16 57° ENE 21:26:31 10° N
Cosmos 2266 Rocket 4.0 21:15:27 10° N 21:21:47 80° E 21:27:05 16° S
COSMOS 2428 2.9 21:16:25 10° S 21:21:52 49° ESE 21:27:21 10° NE
Meteor 1-29 4.2 21:18:40 10° N 21:22:00 44° WNW 21:25:18 10° SW
MOS 1-B Rocket 4.3 21:19:05 23° SE 21:22:25 46° ENE 21:27:44 10° N
Envisat 3.9 21:18:21 10° S 21:23:13 46° W 21:28:08 10° NNW
Helios 1B rocket 3.9 21:21:50 10° N 21:25:40 39° WNW 21:29:30 10° SW
Lacrosse 4 Rocket 4.3 21:24:01 10° W 21:25:44 12° WSW 21:27:29 10° SW
Cosmos 1867 4.1 21:21:53 10° NW 21:27:12 54° WSW 21:30:53 19° S
H-2A R/B 2.9 21:28:32 25° ESE 21:30:18 32° ENE 21:34:39 10° N
ATLAS 5 CENTAUR R/B 3.1 21:25:06 10° NW 21:30:53 48° WSW 21:35:39 17° S
Milstar 3 4.4 21:26:38 10° WSW 21:31:14 17° SSW 21:33:53 14° S
Cosmos 1844 4.1 21:26:30 10° NNW 21:32:00 48° ENE 21:34:34 28° ESE
NOAA 11 4.2 21:29:04 24° SSE 21:32:27 74° ENE 21:37:56 10° N
Cosmos 2221 Rocket 3.5 21:32:03 19° S 21:35:08 80° E 21:39:36 10° N
YAOGAN 11 4.0 21:33:34 33° SSE 21:35:27 71° ENE 21:39:46 10° N
Meteor 1-14 Rocket 4.4 21:30:43 10° NNW 21:36:25 78° W 21:40:44 19° S
Cosmos 2322 4.0 21:31:45 10° SSW 21:37:27 69° WNW 21:43:10 10° NNE
Meteor 1-25 Rocket 4.1 21:31:54 10° N 21:37:31 81° E 21:40:41 27° SSE
ARGOS 3.2 21:37:29 30° SE 21:40:05 65° ENE 21:45:25 10° N
Cosmos 1606 3.2 21:42:02 39° E 21:42:02 39° E 21:45:26 10° NNE
Cosmos 1570 Rocket 4.5 21:42:28 35° SE 21:43:35 39° ESE 21:48:29 10° NE
ERS-1 Rocket 3.4 21:42:01 20° S 21:45:28 60° WSW 21:50:27 10° NNW
SeaSat 1 2.7 21:44:57 35° ESE 21:46:45 55° ENE 21:51:35 10° NNW
Meteor 1-20 Rocket 4.1 21:41:35 10° N 21:47:13 86° E 21:50:10 30° SSE
Cosmos 2208 Rocket 4.3 21:53:06 40° SE 21:54:06 45° ESE 21:59:08 10° NNE
H-2A R/B 3.1 21:53:54 30° ENE 21:54:17 31° ENE 21:58:07 10° N
Cosmos 2237 Rocket 2.9 21:58:35 33° E 21:58:35 33° E 22:03:20 10° NE
Cosmos 1553 Rocket 4.4 21:57:07 36° SE 21:58:50 44° E 22:04:39 10° NNE
Cosmos 2333 4.1 21:53:53 10° SSW 21:59:36 87° ESE 22:05:25 10° NNE
NOSS 3-1 (C) 3.3 21:54:38 10° SSW 22:00:15 60° ESE 22:06:34 10° NE
Cosmos 1844 Rocket 2.6 21:55:03 10° NNW 22:00:39 81° WSW 22:02:44 40° SSE
Cosmos 2333 Rocket 2.4 22:00:04 41° SE 22:01:19 48° ESE 22:06:50 10° NE
SPOT 5 2.8 21:59:59 40° S 22:01:41 78° WSW 22:06:17 10° NNW
Cosmos 2278 Rocket 2.7 21:56:33 10° NNW 22:02:01 46° ENE 22:03:38 36° E
SL-08 RB Rocket 3.6 22:01:17 51° SSE 22:02:26 84° ENE 22:07:01 10° NNW
Meteor 2-6 Rocket 4.3 22:01:35 34° S 22:04:12 69° E 22:10:08 10° NNE
USA 229 DEB 4.2 21:59:54 10° SW 22:06:40 63° NW 22:13:36 10° NNE
USA 229 4.1 22:00:00 10° SW 22:06:46 63° NW 22:13:42 10° NNE
CZ-4C R/B 3.1 22:01:29 10° NNW 22:08:25 59° NE 22:11:50 34° ESE
Iridium 4 Rocket 4.1 22:07:02 10° NNE 22:10:06 30° ENE 22:10:06 30° ENE
Cosmos 1898 Rocket 4.1 22:10:29 10° N 22:15:22 40° ENE 22:16:06 38° E
Cosmos 1300 Rocket 4.1 22:11:34 10° N 22:15:29 43° ENE 22:15:29 43° ENE
ASTEX 1 3.5 22:15:27 52° ESE 22:15:58 55° E 22:20:50 10° N
NOSS 3-1 (A) 3.4 22:15:18 43° S 22:16:56 58° ESE 22:23:14 10° NE
SPOT 1/Viking Rocket 3.5 22:16:34 48° S 22:18:03 80° WSW 22:23:18 10° NNW
Cosmos 2219 Rocket 2.1 22:20:01 32° SSW 22:22:45 87° ESE 22:28:25 10° NNE
Landsat 7 3.6 22:29:26 75° SSE 22:29:51 90° ESE 22:34:39 10° NNW
S3M 3.9 22:28:27 52° SSE 22:29:56 73° E 22:36:09 10° NNE
Cosmos 1782 3.9 22:30:21 34° WSW 22:31:22 41° WNW 22:35:11 10° N
Cosmos 2084 3.8 22:34:11 10° NW 22:37:17 54° WNW 22:37:17 54° WNW
Meteor 2-11 Rocket 4.3 22:38:49 60° SE 22:39:44 70° E 22:45:48 10° NNE
Cosmos 1633 3.6 22:36:20 10° NNW 22:39:16 46° NW 22:39:16 46° NW
Cosmos 1602 4.5 22:39:47 10° NNW 22:42:53 51° NW 22:42:53 51° NW
ATLAS 3B R/B 4.1 22:38:31 10° NNW 22:44:23 28° NE 22:47:54 19° ENE
Terra 1.7 22:45:02 88° N 22:45:02 88° N 22:49:46 10° NNW
Cosmos 1346 Rocket 3.5 22:46:34 53° NNW 22:46:34 53° NNW 22:49:50 10° N
Meteor 1-27 Rocket 3.7 22:46:37 57° SSW 22:47:47 79° W 22:53:23 10° N
Cosmos 468 Rocket 4.3 22:50:39 56° ENE 22:50:39 56° ENE 22:55:11 10° NNE
deb Chang Zheng 4 3.9 22:50:41 10° NNE 22:54:23 62° N 22:54:23 62° N
Cosmos 2297 3.9 22:52:34 10° NNW 22:58:13 59° ENE 22:58:30 58° ENE
CZ-4B R/B 3.8 22:54:25 10° NNE 22:58:08 51° NE 22:58:08 51° NE
Geosat 4.0 22:55:40 10° NNE 23:00:07 69° NE 23:00:07 69° NE
Cosmos 1745 Rocket 4.1 22:55:19 10° NNW 23:01:39 71° W 23:02:51 57° SSW
Spot 4 4.1 23:02:26 64° NNE 23:02:26 64° NNE 23:06:37 10° N
CARTOSAT-1 4.2 23:02:56 51° WNW 23:02:56 51° WNW 23:06:34 10° NNW
ATLAS CENTAUR R/B 4.0 23:06:20 12° NE 23:06:20 12° NE 23:06:37 10° NE
Atlas Centaur 2 4.3 22:58:53 10° WSW 23:02:01 20° SW 23:02:01 20° SW
H-2A R/B 3.2 23:09:09 30° WSW 23:09:42 31° W 23:14:05 10° NW
Meteor 1-11 Rocket 4.3 23:07:46 10° NNW 23:13:00 45° W 23:13:39 43° WSW
Cosmos 2285 Rocket 4.1 23:13:34 62° E 23:13:34 62° E 23:19:33 10° NNE
Cosmos 1980 4.1 23:13:33 45° WSW 23:15:00 58° WNW 23:20:36 10° NNE
CZ-4 R/B 4.1 23:10:58 10° N 23:15:17 67° NNW 23:15:17 67° NNW
Cosmos 2298 Rocket 4.1 23:10:29 10° NNW 23:15:27 70° WNW 23:15:27 70° WNW
Timation 1 Rocket 4.4 23:12:00 10° NNW 23:17:55 65° WSW 23:18:00 65° WSW
Okean 1 Rocket 4.0 23:14:26 10° NNW 23:17:55 46° NW 23:17:55 46° NW
NOSS 0 Rocket 4.5 23:16:17 30° WSW 23:19:11 54° WNW 23:25:14 10° NNE
SL-16 R/B 2.6 23:22:16 52° ENE 23:22:16 52° ENE 23:26:45 10° NNE
SeaSat 1 4.2 23:24:45 22° WSW 23:24:45 22° WSW 23:28:19 10° NW
H-2A R/B 3.9 23:31:01 24° WNW 23:31:01 24° WNW 23:33:55 10° NW
Cosmos 1937 Rocket 4.0 23:27:21 10° NNW 23:31:47 55° WNW 23:31:47 55° WNW
Cosmos 2237 Rocket 3.3 23:40:21 31° W 23:42:16 40° WNW 23:47:38 10° NNE
Cosmos 1975 Rocket 4.4 23:46:04 39° NNW 23:46:04 39° NNW 23:49:03 10° N
Cosmos 2333 Rocket 3.9 23:41:58 15° WSW 23:45:48 30° NW 23:50:49 10° N
Cosmos 2278 Rocket 3.6 23:41:07 10° NW 23:45:29 27° W 23:45:29 27° W
CZ-2C R/B 3.8 23:40:42 10° NNE 23:44:26 35° ENE 23:44:26 35° ENE
ALOS 2 4.2 23:48:06 31° NNE 23:48:06 31° NNE 23:50:45 10° N
Cosmos 2315 Rocket 4.0 23:51:45 71° W 23:51:47 71° W 23:58:02 10° N
